Home > Time Zones > World Clock > Weather > Macau > Macau > Past weeks

Flag for Macau Weather past 2 weeks in Macau, Macau

Now
75 °F

Sunny.


Feels Like: 76 °F
Forecast: 69 / 77 °F
Wind: 15 mph from Southeast

Location: Taipa

Current Time: Apr 25, 2015 at 3:33:25 PM

Latest Report: Apr 25, 2015 at 3:00 PM


Visibility: 10 mi

Pressure: 29.98 "Hg

Humidity: 78%

Dew point: 68 °F

Location of MacauLocation

Historic Weather in Macau — Graph

°F

Macau temperature yesterday

Maximum temperature yesterday: 79 °F (at 2:00 PM)
Minimum temperature yesterday: 72 °F (at 1:30 AM)
Average temperature yesterday: 74 °F

Past Weeks' High & Low Weather Summary

 TemperatureHumidityPressure
High81 °F (Apr 18, 12:30 PM)100% (Apr 11, 12:00 AM)30.15 "Hg (Apr 11, 12:00 AM)
Low59 °F (Apr 11, 3:30 AM)25% (Apr 14, 1:00 PM)29.68 "Hg (Apr 20, 3:30 AM)
Average72 °F78%29.97 "Hg
* Reported Apr 10 2:00 PM — Apr 25 2:30 PM, Macau, Weather by CustomWeather, © 2015

Note: Actual official high and low records may vary slightly from our data, if they occured in-between our weather recording intervals... More about our weather records

Advertising

Macau weather history for previous 24 hours

 ConditionsComfort  
Time TempWeatherWind HumidityBarometerVisibility
2:30 PM
Sat, Apr 25
75 °FPassing clouds.15 mph78%29.98 "HgN/A
2:00 PM75 °FPassing clouds.16 mph78%30.01 "HgN/A
1:30 PM75 °FPassing clouds.16 mph78%30.01 "HgN/A
1:00 PM75 °FPassing clouds.15 mph83%30.04 "HgN/A
12:30 PM75 °FPassing clouds.13 mph78%30.04 "Hg6 mi
12:00 PM75 °FScattered clouds.13 mph78%30.07 "Hg6 mi
11:30 AM75 °FScattered clouds.13 mph78%30.07 "Hg6 mi
11:00 AM75 °FScattered clouds.13 mph78%30.07 "HgN/A
10:30 AM75 °FScattered clouds.12 mph78%30.07 "Hg5 mi
10:00 AM75 °FScattered clouds.13 mph78%30.07 "Hg5 mi
9:30 AM75 °FScattered clouds.10 mph78%30.07 "Hg5 mi
9:00 AM73 °FScattered clouds.10 mph83%30.07 "Hg6 mi
8:30 AM73 °FScattered clouds.13 mph83%30.04 "HgN/A
8:00 AM73 °FPassing clouds.13 mph83%30.04 "Hg5 mi
7:30 AM73 °FPassing clouds.13 mph83%30.04 "Hg4 mi
7:00 AM72 °FPassing clouds.12 mph88%30.04 "Hg5 mi
6:30 AM73 °FScattered clouds.10 mph83%30.01 "Hg4 mi
6:00 AM73 °FPassing clouds.9 mph83%30.01 "Hg5 mi
5:30 AM73 °FPassing clouds.12 mph83%30.01 "HgN/A
5:00 AM72 °FPassing clouds.8 mph88%30.01 "HgN/A
4:30 AM72 °FPassing clouds.3 mph88%30.01 "HgN/A
4:00 AM72 °FPassing clouds.2 mph88%30.01 "HgN/A
3:30 AM72 °FPassing clouds.2 mph88%30.01 "HgN/A
3:00 AM72 °FPassing clouds.1 mph83%30.01 "HgN/A
2:30 AM72 °FPassing clouds.3 mph83%30.01 "HgN/A
2:00 AM72 °FPassing clouds.2 mph83%30.01 "HgN/A
1:30 AM72 °FPassing clouds.1 mph83%30.01 "HgN/A
1:00 AM72 °FClear.1 mph83%30.01 "Hg10 mi
12:30 AM73 °FClear.2 mph83%30.01 "Hg10 mi
12:00 AM73 °FPassing clouds.3 mph78%30.04 "HgN/A
11:30 PM
Fri, Apr 24
73 °FPassing clouds.3 mph74%30.04 "HgN/A
11:00 PM73 °FPassing clouds.3 mph74%30.04 "HgN/A
10:30 PM73 °FPassing clouds.6 mph74%30.04 "HgN/A
10:00 PM73 °FPassing clouds.5 mph74%30.04 "HgN/A
9:30 PM73 °FPassing clouds.5 mph74%30.04 "HgN/A
9:00 PM73 °FPassing clouds.6 mph74%30.01 "HgN/A
8:30 PM73 °FPassing clouds.6 mph74%30.01 "HgN/A
8:00 PM73 °FPassing clouds.7 mph74%30.01 "HgN/A
7:30 PM75 °FPassing clouds.7 mph74%30.01 "HgN/A
7:00 PM75 °FPassing clouds.7 mph74%30.01 "HgN/A
6:30 PM75 °FPassing clouds.7 mph69%30.01 "HgN/A
6:00 PM75 °FSunny.9 mph65%29.98 "Hg10 mi
5:30 PM77 °FSunny.8 mph57%29.98 "Hg10 mi
5:00 PM77 °FSunny.8 mph61%29.98 "Hg10 mi
4:30 PM77 °FSunny.9 mph57%30.01 "Hg10 mi
4:00 PM77 °FPassing clouds.8 mph57%30.01 "Hg5 mi
3:30 PM77 °FPassing clouds.7 mph69%30.01 "Hg4 mi
3:00 PM77 °FPassing clouds.7 mph74%30.01 "Hg4 mi
Weather by CustomWeather, © 2015

See weather overviewHow to use our weather pages